Simultaneous Nadir Overpasses (SNOs) Predictions

Prediction of SNOs between METOP-B and NOAA-19 Satellite Orbit:

Table of predicted SNOs for the next 14.0 days since TLE Epoch: 4/10/2021
Index Date (METOP-B) Time (METOP-B) Lat,Lon (METOP-B) SZA (METOP-B ) Date (NOAA-19) Time (NOAA-19) Lat,Lon (NOAA-19) SZA (NOAA-19 ) Distance(km) Time Diff (sec)
1 04/16/2021 15:46:16 80.49, -28.97 71.21 04/16/2021 15:45:10 80.47, -28.93 71.18 2.08 66
2 04/16/2021 16:36:57 -80.48, 138.23 108.83 04/16/2021 16:36:14 -80.48, 138.13 108.85 1.94 43
3 04/16/2021 17:27:38 80.48, -54.46 71.16 04/16/2021 17:27:11 80.48, -54.64 71.14 3.18 27
4 04/16/2021 18:18:19 -80.47, 112.74 108.87 04/16/2021 18:18:14 -80.47, 112.76 108.87 0.71 5
5 04/16/2021 19:09:00 80.46, -79.95 71.12 04/16/2021 19:09:11 80.47, -80.00 71.12 1.25 11
6 04/16/2021 19:59:41 -80.46, 87.25 108.92 04/16/2021 20:00:14 -80.47, 87.39 108.89 2.85 33
7 04/16/2021 20:50:22 80.45,-105.45 71.07 04/16/2021 20:51:11 80.47,-105.36 71.11 2.19 49



Historial Predications of SNOs between METOP-B and NOAA-19
